Location: Fontevrault
(47.1823°N, 0.0493°E)
Time: 13:59:33
(UTC+00:00)

Cosmos 1605 Rocket - Pass Details

Date: 16 June 2021
Orbit: 944 x 1006 km, 82.9° (Epoch: 29 July)

Event Time Altitude Azimuth Distance (km) Brightness Sun altitude
Rises 20:29:40 0° 351° (N) 3,747 8.0 -5.0°
Reaches altitude 10° 20:32:13 10° 352° (N) 2,793 7.3 -5.3°
Maximum altitude 20:38:41 87° 82° (E) 1,011 4.1 -6.1°
Drops below altitude 10° 20:45:02 10° 172° (S) 2,755 5.9 -6.8°
Enters shadow 20:47:19 - 173° (S) 3,609 6.5 -7.1°
